When you browse on this site, cookies collect data to enhance your experience and personalize the content and advertising you see.
Visit our Privacy Policy to learn more. By continuing to use the site, you agree to this use of cookies and data.
  • In United Kingdom
  • List of Countries
  • For 7 days
  • Water Temperature
  • Satellite Maps
  • Weather Map
  • Weather Widgets
  • user-avatar
    Login

    Hourly Weather Wlora

    Today, 24 July, Wednesday

    Time Temperature Precipitation Wind Pressure Humidity
    00:00 +26°C° 0 mm 4 mps 759 mmHg 67%
    01:00 +26°C° 0 mm 3 mps 759 mmHg 65%
    02:00 +26°C° 0 mm 4 mps 759 mmHg 65%
    03:00 +26°C° 0 mm 4 mps 758 mmHg 65%
    04:00 +26°C° 0 mm 5 mps 758 mmHg 65%
    05:00 +27°C° 0 mm 5 mps 758 mmHg 60%
    06:00 +28°C° 0 mm 5 mps 758 mmHg 56%
    07:00 +29°C° 0 mm 5 mps 758 mmHg 51%
    08:00 +32°C° 0 mm 5 mps 759 mmHg 46%
    09:00 +33°C° 0 mm 6 mps 759 mmHg 42%
    10:00 +35°C° 0 mm 6 mps 759 mmHg 37%
    11:00 +35°C° 0 mm 7 mps 759 mmHg 38%
    12:00 +35°C° 0 mm 8 mps 759 mmHg 39%
    13:00 +35°C° 0 mm 9 mps 758 mmHg 40%
    14:00 +35°C° 0 mm 9 mps 758 mmHg 42%
    15:00 +34°C° 0 mm 9 mps 758 mmHg 45%
    16:00 +33°C° 0 mm 9 mps 758 mmHg 48%
    17:00 +32°C° 0 mm 8 mps 758 mmHg 52%
    18:00 +30°C° 0 mm 7 mps 758 mmHg 55%
    19:00 +29°C° 0 mm 7 mps 758 mmHg 59%
    20:00 +28°C° 0 mm 6 mps 759 mmHg 62%
    21:00 +28°C° 0 mm 6 mps 759 mmHg 65%
    22:00 +27°C° 0 mm 6 mps 759 mmHg 68%
    23:00 +27°C° 0 mm 5 mps 759 mmHg 65%

    Tomorrow, 25 July, Thursday

    Time Temperature Precipitation Wind Pressure Humidity
    00:00 +27°C° 0 mm 4 mps 759 mmHg 62%
    01:00 +27°C° 0 mm 3 mps 759 mmHg 59%
    02:00 +26°C° 0 mm 3 mps 759 mmHg 59%
    03:00 +26°C° 0 mm 3 mps 759 mmHg 59%
    04:00 +26°C° 0 mm 3 mps 760 mmHg 58%
    05:00 +27°C° 0 mm 3 mps 760 mmHg 56%
    06:00 +28°C° 0 mm 3 mps 760 mmHg 53%
    07:00 +30°C° 0 mm 3 mps 760 mmHg 51%
    08:00 +30°C° 0 mm 3 mps 760 mmHg 49%
    09:00 +31°C° 0 mm 3 mps 761 mmHg 47%
    10:00 +33°C° 0 mm 3 mps 761 mmHg 45%
    11:00 +33°C° 0 mm 3 mps 761 mmHg 47%
    12:00 +33°C° 0 mm 3 mps 760 mmHg 49%
    13:00 +33°C° 0 mm 3 mps 760 mmHg 51%
    14:00 +32°C° 0 mm 2 mps 760 mmHg 54%
    15:00 +31°C° 0 mm 1 mps 760 mmHg 57%
    16:00 +31°C° 0 mm 1 mps 760 mmHg 60%
    17:00 +30°C° 0 mm 1 mps 760 mmHg 64%
    18:00 +29°C° 0 mm 2 mps 760 mmHg 68%
    19:00 +28°C° 0 mm 2 mps 760 mmHg 72%
    20:00 +27°C° 0 mm 2 mps 760 mmHg 72%
    21:00 +27°C° 0 mm 2 mps 760 mmHg 71%
    22:00 +27°C° 0 mm 2 mps 760 mmHg 71%
    23:00 +27°C° 0 mm 2 mps 760 mmHg 71%

    Day after tomorrow, 26 July, Friday

    Time Temperature Precipitation Wind Pressure Humidity
    00:00 +26°C° 0 mm 2 mps 760 mmHg 71%
    01:00 +26°C° 0 mm 1 mps 760 mmHg 70%
    02:00 +26°C° 0 mm 1 mps 760 mmHg 72%
    03:00 +26°C° 0 mm 1 mps 760 mmHg 74%
    04:00 +25°C° 0 mm 1 mps 759 mmHg 76%
    05:00 +26°C° 0 mm 1 mps 759 mmHg 72%
    06:00 +28°C° 0 mm 1 mps 759 mmHg 69%
    07:00 +29°C° 0 mm 1 mps 759 mmHg 65%
    08:00 +29°C° 0 mm 1 mps 759 mmHg 62%
    09:00 +30°C° 0 mm 2 mps 759 mmHg 59%
    10:00 +31°C° 0 mm 2 mps 759 mmHg 56%
    11:00 +31°C° 0 mm 2 mps 759 mmHg 56%
    12:00 +31°C° 0 mm 2 mps 758 mmHg 56%
    13:00 +31°C° 0 mm 2 mps 758 mmHg 56%
    14:00 +31°C° 0 mm 2 mps 758 mmHg 56%
    15:00 +31°C° 0 mm 1 mps 757 mmHg 57%
    16:00 +31°C° 0 mm 1 mps 757 mmHg 57%
    17:00 +30°C° 0 mm 1 mps 757 mmHg 60%
    18:00 +28°C° 0 mm 1 mps 757 mmHg 64%
    19:00 +27°C° 0 mm 2 mps 757 mmHg 67%
    20:00 +27°C° 0 mm 2 mps 757 mmHg 69%
    21:00 +26°C° 0 mm 2 mps 757 mmHg 71%
    22:00 +26°C° 0 mm 2 mps 757 mmHg 73%
    23:00 +26°C° 0 mm 2 mps 757 mmHg 75%

    27 July, Saturday

    Time Temperature Precipitation Wind Pressure Humidity
    00:00 +25°C° 0 mm 2 mps 756 mmHg 76%
    01:00 +25°C° 0 mm 2 mps 756 mmHg 77%
    02:00 +25°C° 0 mm 2 mps 756 mmHg 76%
    03:00 +25°C° 0 mm 2 mps 755 mmHg 75%
    04:00 +25°C° 0 mm 3 mps 755 mmHg 74%
    05:00 +26°C° 0 mm 3 mps 755 mmHg 69%
    06:00 +27°C° 0 mm 3 mps 755 mmHg 64%
    07:00 +28°C° 0 mm 3 mps 755 mmHg 59%
    08:00 +29°C° 0 mm 3 mps 755 mmHg 57%
    09:00 +30°C° 0 mm 4 mps 755 mmHg 55%
    10:00 +32°C° 0 mm 4 mps 755 mmHg 53%
    11:00 +32°C° 0 mm 4 mps 755 mmHg 52%
    12:00 +32°C° 0 mm 4 mps 755 mmHg 51%
    13:00 +33°C° 0 mm 4 mps 754 mmHg 51%
    14:00 +33°C° 0 mm 4 mps 754 mmHg 51%
    15:00 +32°C° 0 mm 5 mps 754 mmHg 51%
    16:00 +32°C° 0 mm 5 mps 753 mmHg 51%
    17:00 +30°C° 0 mm 5 mps 753 mmHg 53%
    18:00 +29°C° 0 mm 5 mps 753 mmHg 56%
    19:00 +28°C° 0 mm 6 mps 753 mmHg 58%
    20:00 +28°C° 0 mm 6 mps 753 mmHg 60%
    21:00 +27°C° 0 mm 6 mps 753 mmHg 61%
    22:00 +27°C° 0 mm 6 mps 753 mmHg 63%
    23:00 +27°C° 0 mm 6 mps 753 mmHg 62%

    28 July, Sunday

    Time Temperature Precipitation Wind Pressure Humidity
    00:00 +26°C° 0 mm 7 mps 753 mmHg 61%
    01:00 +26°C° 0 mm 7 mps 753 mmHg 61%
    02:00 +26°C° 0 mm 7 mps 753 mmHg 59%
    03:00 +26°C° 0 mm 7 mps 752 mmHg 57%
    04:00 +26°C° 0 mm 7 mps 752 mmHg 55%
    05:00 +27°C° 0 mm 7 mps 752 mmHg 55%
    06:00 +28°C° 0 mm 7 mps 753 mmHg 55%
    07:00 +29°C° 0 mm 7 mps 753 mmHg 56%
    08:00 +30°C° 0 mm 7 mps 753 mmHg 51%
    09:00 +32°C° 0 mm 8 mps 753 mmHg 47%
    10:00 +34°C° 0 mm 8 mps 753 mmHg 43%
    11:00 +34°C° 0 mm 8 mps 752 mmHg 45%
    12:00 +33°C° 0 mm 8 mps 752 mmHg 47%
    13:00 +33°C° 0 mm 9 mps 752 mmHg 49%
    14:00 +33°C° 0 mm 9 mps 751 mmHg 48%
    15:00 +34°C° 0 mm 9 mps 751 mmHg 46%
    16:00 +34°C° 0 mm 9 mps 751 mmHg 44%
    17:00 +33°C° 0 mm 9 mps 751 mmHg 50%
    18:00 +31°C° 0 mm 8 mps 751 mmHg 56%
    19:00 +29°C° 0 mm 8 mps 751 mmHg 62%
    20:00 +28°C° 0 mm 8 mps 751 mmHg 65%
    21:00 +27°C° 0 mm 8 mps 751 mmHg 68%
    22:00 +27°C° 0 mm 8 mps 752 mmHg 71%
    23:00 +26°C° 0 mm 8 mps 752 mmHg 74%

    29 July, Monday

    Time Temperature Precipitation Wind Pressure Humidity
    00:00 +26°C° 0 mm 8 mps 752 mmHg 78%
    01:00 +26°C° 0 mm 8 mps 752 mmHg 82%
    02:00 +24°C° 0 mm 7 mps 752 mmHg 83%
    03:00 +24°C° 0 mm 6 mps 752 mmHg 84%
    04:00 +25°C° 0 mm 5 mps 752 mmHg 85%
    05:00 +26°C° 0.3 mm 4 mps 752 mmHg 81%
    06:00 +26°C° 0.3 mm 3 mps 752 mmHg 77%
    07:00 +27°C° 0.3 mm 3 mps 752 mmHg 72%
    08:00 +28°C° 0.4 mm 2 mps 752 mmHg 72%
    09:00 +28°C° 0.4 mm 2 mps 752 mmHg 73%
    10:00 +28°C° 0.4 mm 2 mps 752 mmHg 73%
    11:00 +29°C° 0.2 mm 2 mps 752 mmHg 70%
    12:00 +29°C° 0.2 mm 2 mps 752 mmHg 67%
    13:00 +29°C° 0.2 mm 2 mps 752 mmHg 64%
    14:00 +30°C° 0 mm 2 mps 752 mmHg 60%
    15:00 +30°C° 0 mm 2 mps 752 mmHg 56%
    16:00 +30°C° 0 mm 2 mps 752 mmHg 52%
    17:00 +29°C° 0 mm 3 mps 752 mmHg 60%
    18:00 +27°C° 0 mm 3 mps 752 mmHg 68%
    19:00 +26°C° 0 mm 4 mps 752 mmHg 76%
    20:00 +25°C° 0.1 mm 4 mps 753 mmHg 77%
    21:00 +25°C° 0.1 mm 4 mps 753 mmHg 78%
    22:00 +23°C° 0.1 mm 4 mps 753 mmHg 79%
    23:00 +23°C° 0 mm 4 mps 753 mmHg 78%
    Show more